Theta_e
315 314 313 312 310 306 306 306 305 305 304 305 306 306 306 306 307 308 308 308 307 304 305 312 317 320 322 322 321 321 322 325 330 332 331 330 329 329 331 333 334 335 334 334 335 334 335 335 336 334 324 316 318 320 321 321 322 325 327 329 329 330 329 328 327 325 325 324 320 318 320 325 323 320 320 321 321 321 321 322 323 324 325 325 324 323 324 326
315 314 313 313 311 308 306 306 306 305 304 305 306 306 307 306 306 307 307 308 308 306 304 308 314 318 322 323 321 322 323 325 328 331 331 330 328 329 330 331 333 334 334 335 335 334 335 335 335 336 327 318 318 321 322 321 322 325 328 328 329 331 329 327 328 325 323 324 321 318 319 323 323 321 320 321 321 321 321 322 322 323 324 324 324 323 323 325
314 314 314 313 312 309 307 306 305 305 305 304 305 306 307 307 307 306 307 308 308 307 305 305 310 316 321 322 322 322 323 325 327 329 330 330 328 328 329 330 331 333 334 334 335 335 335 334 334 333 326 320 319 321 323 322 322 325 327 328 329 329 328 326 326 325 323 323 321 319 318 320 321 321 320 321 322 322 322 323 323 323 324 323 323 323 323 324
314 314 314 314 313 311 308 307 306 305 304 304 304 306 307 307 307 307 307 308 308 308 307 305 307 313 319 322 322 322 324 326 326 327 329 329 328 328 328 329 330 331 333 334 335 335 335 335 334 329 322 321 320 320 322 323 323 324 325 328 329 328 328 327 326 324 322 321 321 319 317 319 319 319 320 321 322 322 322 323 323 323 322 321 321 322 323 324
313 314 314 314 314 312 309 308 307 305 304 304 304 305 307 307 307 307 307 308 308 308 307 306 305 309 316 320 322 322 323 325 325 324 327 328 327 327 327 328 329 330 332 333 334 335 335 335 330 322 320 322 321 320 322 323 323 324 324 326 327 327 328 328 326 324 322 320 319 318 318 319 319 318 320 322 321 322 323 322 322 321 322 321 319 320 322 323
312 313 314 314 314 313 310 309 308 306 304 303 304 304 306 307 307 307 307 307 308 308 308 307 305 307 313 318 321 322 323 325 326 325 326 326 325 325 325 325 326 328 331 332 334 335 335 333 326 320 319 321 321 320 322 323 322 323 325 325 324 325 327 327 326 326 322 320 319 319 319 319 318 319 320 321 322 322 323 321 321 321 321 321 319 319 320 321
311 312 313 314 313 313 311 310 309 307 305 303 303 303 304 306 307 306 307 307 307 308 308 308 306 307 311 316 320 322 323 324 324 326 326 324 325 324 324 324 323 326 330 331 332 334 335 330 323 322 319 320 321 320 321 322 322 322 325 325 323 323 325 325 324 326 322 319 320 319 320 320 319 320 319 320 322 322 322 321 321 321 321 321 320 320 319 319
310 311 312 313 313 313 312 310 309 308 306 304 303 303 303 305 306 306 306 307 307 308 308 308 307 307 310 314 318 321 323 322 322 325 326 324 324 324 325 324 323 325 329 331 332 333 334 328 321 322 322 322 322 321 321 322 322 322 323 325 323 321 323 323 322 324 322 318 319 319 319 321 320 319 318 319 321 321 321 321 321 321 321 321 321 320 320 319
310 311 312 313 313 313 312 310 309 308 307 304 303 303 303 304 306 306 306 306 307 308 308 308 307 307 309 313 317 320 322 321 321 325 325 324 326 326 325 324 323 325 328 330 331 331 333 328 322 320 321 322 321 321 321 321 322 323 323 324 323 321 321 321 320 320 320 317 317 318 319 319 317 317 318 319 320 320 320 320 321 321 321 321 320 320 320 320
310 311 311 312 312 313 313 311 309 309 307 305 303 303 303 304 306 307 307 306 307 308 308 308 308 307 309 313 316 319 321 321 321 323 325 325 327 327 325 324 323 325 329 330 329 328 330 330 326 320 319 320 320 321 322 321 323 323 323 324 323 323 321 320 319 317 316 315 315 318 320 317 315 316 320 321 320 320 320 320 320 320 321 321 320 320 320 320
310 310 310 311 311 312 312 311 309 309 308 306 303 303 303 304 306 307 307 307 307 307 307 308 308 307 309 313 316 319 320 321 321 322 325 326 325 327 326 324 323 323 326 328 328 326 326 330 330 322 319 321 319 319 320 321 322 323 323 323 323 323 322 319 319 317 315 315 315 316 318 316 313 315 319 322 321 320 319 319 320 321 321 321 321 321 321 321
309 310 310 310 311 311 312 311 309 308 308 307 305 303 303 304 306 307 307 307 307 307 307 307 308 308 309 312 314 317 320 322 322 321 324 325 325 326 325 323 321 322 324 324 326 325 325 330 331 325 321 321 320 320 321 320 321 322 322 323 323 323 322 321 320 317 316 319 317 315 318 318 315 314 316 320 321 320 319 319 319 320 320 321 321 321 321 321
308 310 310 310 311 311 312 312 310 309 308 308 306 303 303 303 305 307 307 307 307 307 307 307 308 308 310 312 312 314 319 322 322 322 323 325 327 328 326 323 319 320 323 322 324 325 327 330 328 323 321 321 322 322 322 321 320 322 322 323 324 324 324 323 321 317 317 320 317 317 323 325 322 318 316 318 320 319 318 318 319 319 320 320 320 321 320 321
308 309 310 310 311 310 311 311 310 310 309 307 306 304 303 303 304 306 307 307 307 307 307 307 308 309 311 312 310 311 315 319 320 321 321 323 326 328 327 325 321 321 322 324 327 327 328 329 324 320 320 321 322 322 323 323 320 320 322 322 323 326 326 324 321 318 319 319 315 320 325 327 329 323 318 319 320 318 318 318 318 318 319 319 320 320 320 320
308 309 310 310 310 310 310 311 310 310 309 308 306 304 303 303 304 306 307 307 307 307 307 308 309 310 311 311 309 309 312 316 318 319 320 321 323 325 327 328 326 326 326 326 327 326 327 327 323 319 319 319 320 323 326 326 322 320 323 324 324 325 326 324 321 320 323 319 313 320 325 326 329 327 322 322 322 319 318 319 318 318 318 319 319 319 319 319
308 308 309 310 310 310 310 311 311 310 309 308 307 305 304 303 303 305 307 307 308 307 307 309 311 311 312 312 310 309 310 314 317 318 320 320 321 324 326 327 328 328 327 326 325 325 325 325 322 320 319 319 320 323 327 328 326 324 323 326 326 325 326 326 322 320 323 319 314 319 326 326 327 326 324 325 325 320 318 320 320 319 319 319 320 320 320 320
308 308 309 310 310 309 310 311 311 311 310 308 307 306 305 303 303 305 307 308 308 308 308 310 312 311 311 312 311 310 309 311 314 317 320 320 321 324 325 326 328 328 326 324 324 323 322 321 320 320 320 319 320 324 327 327 328 328 324 324 326 326 326 327 324 320 319 319 318 318 321 326 326 324 323 323 323 320 317 320 321 321 321 320 321 321 321 321
308 308 309 310 310 309 310 311 311 311 310 308 307 306 305 304 303 304 306 308 308 310 310 310 311 311 311 311 311 312 309 310 313 315 318 320 321 324 325 325 326 326 325 323 323 321 319 319 320 320 320 320 320 323 327 327 327 329 328 326 326 326 325 327 326 322 318 319 321 320 320 323 325 325 323 322 321 319 318 320 321 321 322 321 321 320 321 322
308 308 309 309 309 309 309 311 311 310 309 308 306 306 305 304 304 305 306 308 309 310 310 311 311 310 310 309 309 312 312 312 314 315 316 319 321 323 324 325 325 325 324 323 323 320 319 319 320 321 321 321 321 322 324 325 326 327 328 327 326 326 326 326 326 322 320 321 321 322 322 322 323 325 325 323 321 319 319 320 320 321 320 320 320 320 321 322
307 308 309 309 309 309 309 311 310 310 309 307 306 306 305 305 306 307 307 307 308 310 310 311 311 309 311 313 310 311 314 314 314 316 316 317 320 323 324 324 324 324 323 323 323 320 320 321 322 322 321 320 320 320 321 322 324 325 326 327 327 327 326 326 325 322 320 323 324 323 324 323 323 324 324 324 322 319 319 319 320 321 320 321 321 321 321 323
307 308 309 309 309 308 309 311 310 310 309 307 306 305 306 306 306 307 308 307 307 308 309 310 310 309 311 315 314 310 313 317 317 318 318 317 319 321 322 323 323 324 323 322 322 320 321 323 322 321 319 319 319 320 320 321 323 324 325 327 328 328 328 326 325 322 318 322 325 323 323 324 324 324 324 324 322 321 321 320 321 321 322 321 322 323 323 323
307 308 309 309 309 308 309 311 310 309 308 307 306 305 305 304 305 305 306 308 308 307 309 309 310 310 309 312 315 312 312 317 318 320 320 318 320 321 321 323 323 323 323 322 322 321 322 322 321 320 319 318 318 318 320 321 322 324 325 328 330 328 327 326 324 321 318 321 325 323 323 324 323 323 324 324 323 322 322 321 321 322 322 322 323 324 324 324
307 307 308 310 309 308 309 310 310 309 308 308 306 305 305 304 304 304 305 307 308 307 308 308 310 311 310 310 312 313 314 316 317 320 321 320 320 320 321 323 322 322 323 322 322 322 322 321 320 320 319 319 318 318 319 320 321 323 324 327 329 328 328 328 325 321 317 319 321 321 322 324 324 323 323 324 323 321 321 321 321 321 322 323 323 325 325 325
307 307 308 310 309 309 309 310 310 309 308 307 306 305 305 303 303 305 306 307 308 308 307 307 308 310 311 311 310 311 314 316 316 318 320 321 321 320 321 322 322 322 323 321 321 322 321 320 320 320 320 319 319 319 318 320 321 322 323 325 328 328 328 328 325 321 319 318 318 320 325 326 325 325 324 324 323 322 321 321 321 321 321 322 323 324 324 325
307 307 308 309 309 308 309 310 311 309 308 307 306 305 304 303 303 305 307 308 307 308 307 307 308 308 309 310 310 311 313 315 316 317 319 320 320 321 320 321 322 322 321 320 321 321 319 320 320 321 321 320 320 320 320 320 321 321 322 323 325 327 328 326 324 323 325 325 321 323 330 330 327 327 327 326 326 324 323 322 322 322 321 322 322 323 325 326
306 307 308 309 309 308 309 311 310 308 308 308 306 305 304 303 304 305 306 306 305 307 309 308 308 307 307 309 311 312 313 313 313 315 318 319 319 320 320 321 321 321 320 319 319 319 319 319 319 320 321 321 321 321 320 320 322 323 323 322 323 326 327 326 325 327 330 330 323 323 330 331 327 327 328 327 327 326 325 324 324 324 323 323 323 325 327 327
307 307 308 309 309 308 309 311 309 308 308 308 306 305 304 303 304 304 303 303 303 307 310 308 307 308 307 309 310 311 312 312 312 313 315 318 320 319 320 321 320 319 319 319 320 320 318 318 319 319 320 321 321 321 320 320 323 325 323 322 324 325 327 327 327 328 329 328 324 321 326 330 329 328 327 326 327 326 326 325 325 326 325 325 324 325 326 326
306 307 308 309 309 308 309 310 309 308 308 307 306 305 304 303 304 303 302 303 305 306 308 308 308 309 309 310 311 310 311 313 313 314 312 315 319 319 318 319 319 319 319 319 321 321 318 319 319 318 319 321 321 321 320 320 322 324 323 324 324 325 327 327 327 329 328 329 329 324 324 329 330 327 326 326 326 326 326 326 326 327 326 326 326 326 326 326
306 307 307 309 309 308 309 309 308 308 308 307 306 305 305 304 303 303 302 303 306 305 307 309 308 308 310 311 311 310 311 312 313 315 314 314 318 318 318 319 319 320 319 318 320 320 319 319 318 319 320 321 320 320 320 320 321 323 325 325 325 327 328 328 329 330 328 329 331 327 324 329 331 326 325 326 325 325 326 325 326 327 327 327 326 326 326 326
306 307 307 308 308 309 309 309 308 308 307 306 306 305 305 304 303 303 302 303 306 307 308 309 307 309 311 312 312 311 311 312 313 316 316 316 317 317 317 318 319 319 319 319 319 319 320 319 318 320 320 320 320 320 320 320 321 324 327 327 326 327 327 327 327 329 330 330 330 327 325 328 330 328 326 327 326 325 325 325 325 326 327 327 327 327 326 326
306 306 307 308 308 308 309 308 308 308 307 306 306 305 304 304 302 302 303 304 304 308 310 309 308 310 312 311 311 311 310 311 312 315 317 317 317 318 317 317 318 319 320 321 320 319 321 321 321 321 320 320 321 321 322 321 322 326 328 328 327 326 327 326 324 326 331 332 330 327 325 327 329 328 325 326 326 324 324 324 324 325 326 327 327 326 326 326
307 307 308 308 308 308 308 308 307 307 306 305 305 305 304 304 303 302 303 302 302 307 310 309 309 310 311 310 311 311 310 310 311 313 315 317 318 318 318 317 319 321 321 322 321 321 322 322 322 322 320 321 322 323 323 323 324 326 327 328 329 328 329 329 327 328 330 332 330 327 327 328 329 327 325 325 325 324 324 324 324 325 326 327 327 326 325 325
307 308 308 308 308 308 307 307 307 307 306 305 305 305 303 303 303 303 303 302 303 308 310 309 309 310 311 310 310 311 311 310 311 312 313 315 317 318 318 317 318 321 322 322 321 322 322 322 322 322 322 321 323 325 324 324 325 326 327 329 329 330 332 332 330 329 330 331 327 325 328 329 328 326 324 324 325 325 325 326 326 326 327 327 327 326 326 326
307 307 308 308 308 308 306 306 307 306 305 305 305 304 303 303 303 302 303 303 304 307 310 310 310 310 311 310 310 311 311 311 311 312 313 315 317 318 318 318 317 319 322 321 321 322 322 322 322 323 323 322 323 325 324 324 326 326 327 329 329 329 330 331 331 330 332 329 324 325 329 329 328 325 322 321 322 324 324 325 326 325 325 326 326 325 325 326
307 307 308 308 307 307 306 306 306 305 305 305 304 303 303 303 303 303 303 304 305 308 310 310 310 310 310 310 309 311 311 311 311 311 313 314 316 317 318 319 318 318 320 321 320 321 322 324 324 322 323 323 323 323 322 324 326 326 327 329 329 328 327 327 327 327 328 327 325 325 328 327 326 324 321 321 321 320 321 322 321 322 322 323 323 323 324 325
307 308 308 308 307 306 306 306 306 304 304 305 304 303 302 302 303 303 303 304 307 310 310 310 310 310 310 310 310 311 311 311 312 311 312 313 314 316 317 318 318 318 320 321 321 321 322 324 324 322 323 323 322 323 322 323 327 327 326 328 327 326 326 326 323 322 324 328 327 326 326 325 324 324 323 323 323 321 321 321 320 321 322 321 321 322 324 325
307 308 307 307 306 306 306 306 305 304 304 304 303 303 302 302 304 304 304 304 307 310 311 310 311 310 310 310 309 310 311 311 312 312 312 313 313 314 316 317 317 317 319 321 321 322 323 324 324 322 323 324 322 323 323 322 325 327 328 327 324 325 327 326 325 323 325 329 328 326 326 326 325 327 325 324 324 324 323 322 321 321 321 320 320 321 322 324
308 308 307 306 306 306 305 305 304 304 305 304 303 303 303 302 304 305 306 305 306 309 311 311 311 310 310 310 309 310 310 310 312 312 312 312 313 314 314 316 318 317 316 319 320 321 322 324 324 323 323 324 323 324 325 323 322 324 326 326 324 326 327 326 326 326 326 328 328 325 326 325 325 326 324 324 325 325 324 324 323 323 322 321 320 320 322 323
308 307 306 306 305 305 305 305 305 304 304 303 303 303 303 302 304 306 307 306 305 307 309 310 311 310 310 310 309 310 310 309 312 313 312 312 313 315 314 314 317 318 316 317 319 321 323 323 324 323 323 324 324 325 327 325 322 321 324 325 325 326 327 326 326 325 325 326 326 325 324 324 324 324 323 324 325 324 325 325 324 324 325 324 323 323 324 324
307 305 305 306 305 304 305 305 305 304 303 303 303 304 304 303 305 306 306 307 307 306 307 309 311 310 310 310 310 310 311 310 311 312 312 313 313 315 315 314 315 318 318 317 318 321 322 322 323 323 323 324 325 325 326 327 325 323 324 326 326 325 326 327 326 324 325 325 325 325 324 322 321 323 323 323 324 324 325 325 325 326 325 324 324 325 324 323
306 304 304 305 305 304 305 304 304 303 303 303 303 303 304 304 305 306 306 307 308 307 306 308 310 310 310 310 310 311 311 310 311 312 311 313 313 314 317 316 315 318 319 319 319 319 320 321 322 322 323 325 326 325 325 326 325 325 325 326 327 327 326 327 327 325 324 325 324 325 325 323 321 322 323 322 323 324 324 325 326 326 325 324 324 324 323 323
304 304 304 305 305 304 304 304 303 303 303 303 303 303 304 304 305 306 305 305 307 307 306 307 309 310 310 310 310 311 312 311 311 311 312 313 313 313 316 318 317 318 319 319 319 319 320 321 321 321 323 325 325 324 324 325 324 324 325 325 326 327 325 326 327 326 324 325 324 324 325 325 321 320 321 322 323 323 324 324 325 325 324 323 323 323 322 322
303 304 304 304 304 304 304 304 303 303 303 303 303 303 304 305 305 306 306 305 306 307 306 306 308 309 309 310 311 310 311 312 312 311 312 312 313 313 316 318 318 318 319 319 319 319 319 320 320 320 321 322 323 323 323 324 324 325 326 326 326 326 324 324 325 324 324 325 324 325 326 325 321 319 320 321 320 321 322 322 322 324 322 322 322 323 322 321
303 304 304 304 304 303 304 304 304 303 303 303 303 303 304 304 304 306 306 305 306 307 307 307 308 309 309 310 311 310 310 312 312 312 312 312 313 312 315 318 319 319 319 319 319 319 319 319 320 322 323 322 323 324 323 323 324 325 326 326 325 326 325 325 325 324 324 325 325 325 326 325 320 317 318 317 317 318 318 318 319 321 321 321 322 321 321 321
303 303 302 304 304 303 303 304 304 303 303 303 303 303 304 304 304 305 305 305 306 307 307 308 308 308 308 308 308 309 310 311 311 312 312 312 313 314 314 316 318 318 319 318 318 319 319 319 319 322 324 324 323 325 324 324 324 325 325 325 325 325 326 326 325 323 323 325 325 324 325 323 318 315 315 315 315 317 318 316 316 318 320 321 321 321 321 320
303 303 301 302 303 302 302 302 303 303 303 302 302 303 304 304 304 304 304 305 306 306 307 308 308 308 307 307 307 307 309 310 310 312 313 312 314 315 314 316 319 319 318 318 318 318 317 318 319 320 322 324 325 325 324 324 324 325 325 325 324 325 325 326 325 323 323 324 323 323 323 322 319 316 316 315 314 317 319 317 315 316 319 321 320 320 320 319
302 303 302 302 302 302 302 302 302 303 303 302 302 303 303 303 304 304 304 305 305 305 306 307 308 308 308 308 307 307 308 309 309 311 313 313 315 315 314 316 319 319 318 317 317 318 317 318 319 319 320 322 325 325 325 324 324 323 324 324 324 324 325 325 325 324 324 324 323 323 322 323 322 319 318 317 315 316 318 318 316 315 317 319 319 319 319 320
301 302 302 302 303 302 302 303 302 302 303 302 302 303 303 303 303 304 304 304 304 305 306 307 307 308 308 308 308 308 308 308 308 309 312 313 315 315 314 316 319 319 318 317 317 317 317 317 318 320 320 320 322 323 324 324 323 323 323 323 323 324 324 325 325 324 324 324 324 323 322 322 322 320 319 318 317 316 316 317 316 315 316 317 317 318 320 320
300 301 301 302 303 302 303 303 303 302 303 302 302 303 303 303 303 304 304 304 304 305 305 306 307 307 308 309 309 309 309 309 308 309 310 312 315 315 315 316 317 317 317 317 316 316 317 317 316 317 319 319 319 320 320 322 323 323 323 323 323 323 323 324 324 323 323 323 322 322 323 322 321 320 320 319 317 316 316 315 315 315 316 316 317 319 320 320
300 301 301 301 302 302 303 303 302 302 302 302 303 303 303 303 303 304 304 304 305 305 305 306 307 308 308 309 309 309 309 309 309 310 310 311 313 315 315 316 316 316 315 315 315 315 317 318 316 314 316 316 316 316 317 319 320 322 323 324 323 323 323 323 322 323 323 323 321 321 323 322 321 321 320 319 317 316 316 315 314 316 317 316 317 319 320 320
300 300 301 301 301 302 303 303 302 302 302 302 303 303 304 303 303 304 304 305 305 305 305 305 306 307 308 309 309 309 309 309 310 310 310 311 312 314 314 315 316 317 315 316 316 315 315 317 316 314 315 315 315 315 315 316 316 318 320 322 323 323 323 323 323 322 323 323 322 323 323 322 321 321 319 318 317 317 317 315 315 316 318 318 318 319 320 319
300 301 301 301 301 302 303 303 303 302 302 302 303 303 304 304 304 304 304 305 306 306 306 306 306 307 308 309 309 309 310 310 310 310 310 311 312 312 313 314 316 317 316 316 317 316 315 315 314 314 315 315 315 315 314 315 315 316 318 320 321 322 322 322 323 323 322 322 323 323 323 321 320 320 319 318 317 316 316 316 316 317 318 319 318 317 318 319
Wind_Speed
36 35 33 31 30 29 29 28 27 28 28 28 28 27 27 28 27 26 25 25 26 27 28 29 27 24 23 24 26 30 30 29 26 26 32 36 32 28 29 29 25 22 16 12 12 10 9 11 13 14 12 8 7 8 9 9 9 7 5 7 7 7 6 6 8 5 1 1 7 11 15 13 8 10 11 8 10 10 9 14 15 15 17 15 10 8 7 10
38 36 34 33 31 30 30 28 28 28 29 29 28 27 27 27 28 27 26 25 25 25 27 30 28 25 23 21 24 27 29 32 30 31 35 35 30 28 30 30 27 23 18 16 16 13 9 9 12 15 13 9 8 7 8 8 10 8 5 6 8 7 5 5 7 8 3 2 7 11 14 13 7 10 12 8 7 10 9 11 16 16 17 20 17 13 9 9
40 37 36 34 32 31 30 29 29 28 29 29 28 28 27 27 27 26 27 26 25 24 25 28 29 26 22 21 21 23 29 31 32 37 37 34 30 29 30 30 30 26 19 15 16 17 15 11 11 12 12 10 8 7 7 8 9 8 6 7 8 5 4 6 9 11 8 2 5 9 13 13 8 10 12 9 6 8 12 12 13 16 20 23 22 19 15 12
42 39 37 36 34 32 31 30 29 29 29 29 29 28 27 27 26 26 26 26 25 23 24 26 28 27 22 20 18 21 26 22 32 44 38 34 32 30 30 30 31 29 21 15 13 17 18 15 12 9 9 10 9 8 8 9 9 5 7 10 5 4 5 9 11 12 11 6 4 6 10 11 10 12 12 8 6 7 14 17 17 18 19 21 23 22 21 18
45 43 39 36 35 32 32 31 30 29 29 29 29 28 28 26 26 26 25 26 25 23 23 24 27 27 23 20 17 20 19 9 26 45 40 36 36 32 30 29 31 30 24 17 14 16 19 17 12 8 8 8 8 7 10 12 10 4 11 13 3 3 6 6 10 12 13 10 5 7 7 8 10 13 14 13 10 8 11 17 19 20 18 17 18 20 23 23
47 46 42 38 36 34 33 32 31 30 29 29 29 29 28 26 26 25 25 25 24 24 22 22 25 25 23 20 18 20 20 9 10 23 34 40 39 36 33 30 29 29 26 21 17 16 17 15 11 9 7 8 10 10 10 12 12 8 11 13 5 6 7 3 5 12 13 10 8 9 6 6 9 11 15 19 17 13 12 14 13 14 17 19 17 17 21 23
48 48 46 42 38 36 34 33 32 31 30 29 29 30 29 27 26 25 25 24 24 24 22 22 23 24 23 20 20 20 24 26 14 6 16 29 37 41 36 33 31 28 28 23 19 19 18 14 12 12 9 7 11 13 11 9 12 11 10 9 7 9 10 5 5 11 13 10 9 8 7 8 10 8 9 19 24 21 18 16 12 10 13 17 19 18 19 20
48 49 48 44 39 37 36 35 33 31 30 29 29 30 29 28 26 25 25 24 24 23 22 22 22 24 23 20 21 19 26 42 37 18 8 7 22 36 36 35 33 30 30 25 20 23 21 15 12 11 11 9 9 13 13 9 11 13 13 8 5 7 11 9 6 10 13 12 10 8 8 9 11 8 6 16 23 23 25 21 16 13 11 13 17 18 19 20
47 49 48 45 42 39 37 36 34 33 31 29 29 29 29 28 26 25 24 24 24 22 22 22 22 24 23 21 21 18 29 46 48 35 14 5 16 28 36 37 34 32 32 29 22 22 24 20 14 10 9 9 9 12 14 12 10 13 18 11 4 5 8 11 9 9 13 13 10 9 9 8 10 9 9 18 22 21 25 24 22 18 15 14 15 16 18 20
46 49 49 48 46 42 40 38 36 34 31 30 29 29 29 28 26 25 24 24 23 22 23 22 23 24 22 23 19 15 29 38 43 39 18 13 22 28 37 40 37 33 29 30 25 23 24 23 22 17 9 4 4 10 13 13 7 9 19 13 6 6 5 10 11 9 11 10 11 11 9 5 6 8 8 13 17 20 22 24 25 24 22 19 17 17 17 18
46 49 51 52 50 46 42 39 37 35 32 31 30 29 29 28 26 24 23 23 22 21 22 23 23 24 23 23 19 18 26 27 34 39 24 18 27 32 38 43 44 39 31 29 27 24 23 22 25 20 10 6 4 8 9 11 7 6 11 9 9 8 5 9 9 9 10 7 12 11 7 3 4 7 9 9 12 15 17 21 25 26 26 25 23 22 21 21
45 47 50 52 51 47 44 40 38 36 33 31 30 30 28 28 26 24 23 22 21 20 21 24 23 24 24 22 29 33 27 18 21 30 27 23 28 33 38 41 45 45 38 31 28 25 23 22 26 21 10 5 4 5 7 9 10 7 6 7 10 9 9 12 9 9 11 6 8 8 6 8 8 10 12 15 18 15 12 17 22 24 27 27 27 26 25 24
43 44 48 51 49 47 45 41 38 36 34 31 30 30 28 27 26 23 22 21 20 20 21 24 23 24 21 19 36 44 31 20 15 17 25 25 24 30 40 41 41 47 44 34 30 26 23 21 21 22 16 6 1 3 7 8 7 8 7 7 8 8 11 14 10 8 11 7 7 9 7 11 14 15 16 17 20 18 14 16 19 22 24 26 26 26 25 24
43 44 47 49 49 48 46 41 38 36 34 32 30 30 29 27 25 23 21 20 20 19 20 22 23 22 20 23 36 42 36 28 20 17 22 24 21 23 34 39 37 42 40 31 26 20 17 15 13 17 18 10 3 2 6 6 4 7 6 5 8 10 8 12 12 10 10 7 10 11 9 11 13 13 20 23 22 20 17 16 18 21 22 24 25 25 25 25
43 43 44 48 50 50 46 42 39 36 34 32 30 30 29 27 25 23 20 19 19 18 21 22 23 19 14 23 33 37 37 31 26 24 22 22 22 21 25 30 29 30 29 26 24 16 11 10 11 12 11 13 8 2 2 2 3 6 7 7 10 11 6 7 11 15 14 7 12 13 8 10 15 10 16 20 22 22 20 17 18 21 23 24 24 25 26 26
42 42 43 47 51 49 47 44 39 37 34 31 30 29 29 26 24 22 19 19 19 20 22 20 21 19 9 15 26 32 35 33 31 27 23 24 24 25 27 28 27 27 24 22 21 17 11 8 9 11 8 8 7 2 1 1 2 6 8 10 11 11 10 6 7 16 15 6 10 14 8 8 11 7 10 15 20 22 21 20 20 21 25 27 28 27 27 27
42 43 43 47 50 50 48 45 41 38 34 32 31 29 27 25 22 22 19 19 20 21 24 20 19 18 10 12 19 27 37 38 35 27 22 25 26 28 31 28 26 27 24 19 18 17 11 9 9 7 7 5 5 4 4 5 6 7 8 10 12 11 12 9 4 9 11 5 9 14 12 14 12 4 7 13 19 18 18 21 21 21 25 29 31 32 31 31
43 43 44 47 49 51 50 47 43 39 36 35 32 29 26 24 23 22 21 21 20 18 19 19 17 12 12 22 26 26 34 35 32 32 27 22 25 30 32 29 25 25 23 16 13 15 11 8 8 5 6 7 6 7 8 11 10 10 11 10 11 9 11 13 6 8 11 9 11 14 13 17 20 14 8 10 14 15 17 20 20 22 23 25 29 33 35 36
43 43 44 47 49 50 50 48 45 41 40 37 33 31 25 24 22 21 23 22 21 14 9 20 26 13 5 22 33 23 22 29 27 31 34 26 25 29 30 28 28 26 20 10 8 15 14 7 6 6 7 10 11 12 16 14 10 13 16 13 11 9 10 11 6 8 13 11 12 16 15 15 20 21 14 10 12 14 16 17 18 21 24 26 29 33 37 38
43 43 43 46 48 50 52 49 46 44 42 37 35 32 25 23 16 13 23 26 30 20 4 21 38 24 2 4 24 26 17 23 26 27 33 33 29 28 28 27 27 23 15 9 8 16 17 7 5 8 10 14 16 19 21 16 13 15 16 15 15 13 9 8 5 3 6 10 12 15 15 16 18 18 16 15 14 13 14 15 18 22 24 28 33 35 38 40
42 43 43 45 47 52 53 51 48 46 43 39 39 34 28 29 15 12 26 25 33 32 10 13 31 34 16 7 5 26 19 13 20 24 26 32 33 24 22 24 18 12 13 13 11 14 16 9 10 12 13 16 17 19 19 17 20 17 13 14 14 13 11 9 8 2 2 7 9 11 13 16 17 17 16 16 15 15 17 17 19 23 24 26 33 36 37 36
43 43 44 45 47 52 53 52 50 46 42 39 42 38 34 38 24 16 26 16 19 33 23 14 18 30 34 10 4 17 23 15 16 22 22 29 34 24 19 22 15 9 14 14 10 10 12 10 15 17 15 16 16 19 20 21 22 17 11 11 10 10 9 7 7 3 4 6 6 6 11 14 16 18 18 18 16 16 20 22 22 25 25 25 30 35 35 35
42 43 45 45 47 52 53 52 49 45 44 41 44 42 34 39 29 14 19 11 7 24 29 25 20 21 28 26 15 13 18 19 16 22 28 30 34 31 23 17 14 13 14 14 12 11 11 12 19 21 17 17 17 18 21 20 18 16 13 11 10 11 11 9 7 5 4 5 3 4 8 11 12 16 17 18 19 18 21 26 27 28 28 29 33 36 37 40
42 42 45 46 47 51 53 52 48 45 46 43 44 41 32 35 30 15 13 7 1 12 27 33 29 22 17 19 24 20 14 17 16 19 30 32 32 31 23 17 16 14 13 17 17 13 11 11 17 19 16 18 20 18 19 15 12 16 18 15 12 11 15 12 5 6 3 4 2 4 10 11 12 16 16 15 17 19 22 25 27 28 31 37 41 41 42 44
43 44 45 47 47 51 53 50 48 47 46 43 41 39 32 31 29 19 13 3 1 5 15 25 26 28 28 18 19 19 11 14 18 18 27 34 33 24 16 17 16 12 14 18 15 11 11 11 14 15 15 18 20 18 18 14 10 14 17 18 15 10 13 10 7 7 5 8 7 5 10 11 9 16 17 14 15 18 20 22 26 28 30 37 42 45 48 48
44 45 47 48 49 53 53 48 49 48 43 40 41 40 34 29 28 23 12 2 4 5 7 15 17 22 30 25 19 15 7 15 24 23 27 34 38 28 15 13 10 10 14 14 9 5 8 12 12 12 14 16 19 18 18 17 10 11 13 18 18 12 13 12 10 9 8 8 5 8 12 11 7 12 15 13 15 17 17 18 23 27 27 30 37 46 52 52
44 46 49 49 50 55 53 46 48 48 41 38 40 39 34 29 28 23 11 2 4 8 9 13 14 12 20 27 26 17 4 10 20 26 30 32 38 34 19 12 8 9 11 8 6 5 8 15 14 14 13 11 15 14 14 16 12 10 11 17 19 16 17 14 12 12 9 3 2 6 9 11 12 11 11 12 13 16 17 16 19 23 26 29 34 43 50 52
44 45 49 51 53 57 54 47 50 50 43 41 39 36 30 28 27 18 9 4 2 7 7 10 13 10 13 22 30 23 8 6 11 21 35 33 33 30 16 15 15 11 13 11 9 10 13 18 18 18 16 10 13 13 13 17 14 11 9 15 20 19 19 15 13 13 6 2 8 9 6 8 13 8 8 13 16 18 20 18 18 21 27 32 36 42 46 48
44 44 50 54 54 57 54 47 50 49 43 40 38 33 29 30 26 12 4 4 2 4 5 12 13 10 14 18 27 30 18 8 4 11 29 30 30 24 11 17 19 13 16 15 11 9 11 20 24 19 14 11 14 13 14 17 14 10 10 12 12 10 10 11 11 10 5 5 14 12 10 8 14 7 9 13 15 18 18 16 18 23 28 31 34 41 44 44
42 45 51 55 55 57 51 43 46 45 41 42 39 35 34 30 19 8 6 5 2 3 6 13 14 13 18 16 17 25 20 14 7 7 19 23 27 26 14 16 19 12 13 14 14 10 5 16 22 15 13 14 12 11 15 20 16 9 10 10 5 2 1 2 4 5 6 9 14 14 15 12 14 11 10 12 12 13 14 12 14 20 27 30 31 36 41 43
40 44 52 56 57 58 51 44 44 44 44 44 41 39 33 19 8 7 8 2 2 4 6 9 13 14 21 16 12 18 16 14 13 9 10 13 17 20 13 10 10 8 10 9 11 12 6 8 9 10 18 17 9 10 15 17 14 9 7 9 7 3 1 1 1 4 6 9 11 15 16 14 16 11 6 11 13 12 13 14 14 17 23 26 27 33 40 42
38 45 53 57 58 57 54 50 48 47 46 46 46 41 26 10 6 7 5 4 3 6 7 10 13 14 21 19 12 16 15 13 15 13 10 9 9 12 12 9 7 6 8 8 9 11 10 8 6 10 21 21 12 8 9 8 10 10 8 10 9 5 4 5 5 4 5 8 10 13 15 12 18 14 5 9 11 10 12 14 16 17 20 22 24 32 38 38
39 46 53 57 56 54 52 51 51 47 45 48 47 33 14 6 9 9 7 6 2 3 8 12 14 15 18 17 12 15 15 13 15 15 13 12 9 11 14 14 13 9 6 11 12 9 9 10 11 11 13 19 16 10 8 6 9 12 10 11 10 6 6 8 6 3 4 8 8 9 15 9 15 13 10 15 15 11 13 16 18 20 21 22 23 27 31 32
41 47 53 55 53 51 50 52 53 48 49 51 38 18 9 8 8 9 9 7 1 1 7 11 14 16 16 15 12 14 13 11 14 15 13 13 9 9 13 15 18 14 4 7 10 11 13 11 13 14 11 17 18 13 12 10 11 14 10 10 11 7 7 8 7 7 8 6 4 8 11 8 8 3 2 8 11 10 12 16 21 22 24 24 23 24 26 29
41 50 54 50 47 48 50 52 52 51 54 47 23 9 10 9 7 9 10 7 3 3 7 11 15 15 14 13 13 15 13 9 13 14 12 12 10 9 11 10 16 15 7 6 5 8 14 9 10 17 16 21 22 17 17 13 9 11 10 11 11 8 7 4 2 5 6 4 4 6 5 7 6 5 5 4 3 5 10 13 16 21 25 27 26 28 30 32
44 54 52 44 45 46 49 53 52 54 55 36 11 9 11 7 6 8 9 8 5 6 9 11 13 12 11 11 11 15 14 8 12 13 10 13 13 12 11 6 11 15 10 8 4 5 11 7 10 16 13 19 25 20 19 16 9 6 9 11 6 5 6 4 1 2 2 6 5 5 6 8 7 10 12 11 6 6 9 9 11 19 25 25 28 34 36 36
48 53 45 41 47 47 49 54 53 55 49 24 7 11 9 5 6 6 7 9 6 7 10 7 8 9 10 10 10 15 15 10 11 11 8 11 11 14 15 8 10 16 14 10 4 2 6 5 11 18 14 20 29 23 18 19 12 6 11 11 2 3 3 3 4 3 5 9 5 6 10 10 7 7 7 14 15 13 13 11 11 16 17 18 26 33 31 29
52 50 40 43 51 49 51 53 52 50 35 13 7 10 6 5 7 6 7 10 8 8 8 6 6 8 9 10 11 16 16 11 11 11 9 9 7 12 17 10 9 18 22 18 7 1 5 4 6 16 16 16 21 18 13 14 9 2 8 11 5 4 7 6 5 5 7 8 5 8 12 10 10 8 4 11 17 17 17 15 13 15 13 14 25 29 25 24
53 40 29 44 54 50 53 54 51 42 21 8 9 8 5 7 7 6 9 12 11 10 10 8 6 5 7 9 11 14 17 15 13 11 10 9 6 10 18 13 10 16 25 24 10 2 5 4 3 10 13 11 10 10 9 10 6 2 4 7 2 2 6 7 5 3 6 7 7 10 10 8 11 11 8 10 14 14 14 12 12 14 15 17 25 31 30 28
46 23 15 46 56 50 56 53 41 27 10 6 9 5 5 6 4 5 11 13 9 7 9 9 7 5 6 8 9 11 14 15 14 10 9 10 8 8 15 16 12 13 19 23 15 6 4 4 4 5 9 9 7 9 12 13 11 6 6 7 5 3 2 3 4 4 4 6 7 9 10 10 7 7 12 15 13 13 12 10 8 11 17 22 26 30 30 28
37 11 12 51 59 53 56 39 19 11 4 5 7 3 4 6 5 6 9 10 5 1 3 6 7 7 5 6 8 9 11 12 14 12 9 10 10 8 10 14 13 12 13 14 14 10 4 4 6 4 5 9 10 13 18 18 16 13 11 11 11 10 6 5 8 7 5 6 7 8 9 10 4 5 10 14 14 14 13 11 9 12 21 26 24 24 23 22
26 5 17 53 58 56 48 18 5 7 4 5 7 5 5 6 6 7 5 5 3 1 2 1 4 7 7 6 6 7 9 11 13 12 10 12 13 9 10 16 18 16 12 9 12 12 4 3 7 5 4 8 8 8 13 17 18 15 10 9 11 11 9 9 9 8 7 7 5 5 8 5 2 4 7 9 11 14 15 13 11 14 22 25 23 22 19 15
15 12 32 53 55 55 36 8 6 9 3 5 8 6 5 5 5 5 5 6 4 2 3 2 3 6 7 6 5 6 7 9 14 15 12 13 14 13 13 19 20 16 11 8 10 10 3 2 6 4 2 4 2 1 3 9 14 12 7 5 8 11 11 9 5 4 7 8 7 6 9 6 3 4 3 1 3 7 10 12 12 14 20 23 22 21 19 16
19 25 37 46 53 50 25 6 10 11 6 8 8 6 5 3 5 6 6 8 5 3 4 4 4 4 3 2 3 7 9 8 11 15 14 10 12 17 19 21 20 14 10 9 11 11 6 3 5 6 4 3 2 2 4 5 7 8 8 8 10 14 13 4 1 1 5 10 10 8 10 9 3 3 3 1 2 4 6 10 13 14 17 19 18 19 21 21
18 18 20 33 49 42 14 3 10 11 9 10 8 8 6 2 3 6 8 8 5 4 4 4 4 4 3 1 1 4 10 10 9 12 13 10 7 11 18 23 21 15 14 15 16 15 9 5 5 7 8 7 7 7 7 7 7 6 10 13 13 16 16 8 5 5 6 10 12 9 12 10 1 4 5 4 3 5 5 7 11 15 17 18 19 21 22 19
10 5 6 15 29 26 7 4 8 7 9 10 7 8 11 7 3 5 8 7 5 5 2 0 4 6 5 6 4 3 6 9 7 5 11 12 6 4 15 22 20 19 20 18 17 12 5 6 9 10 10 7 4 3 3 6 10 11 15 19 18 19 21 15 10 9 8 10 11 12 15 12 5 5 7 5 5 6 6 5 9 16 20 21 21 20 17 16
4 3 4 6 10 11 3 3 5 6 9 12 7 7 14 13 5 5 7 6 6 8 3 1 4 7 7 10 10 8 8 8 7 4 10 15 7 2 13 20 18 22 23 16 15 11 1 7 14 15 16 12 2 2 3 7 14 17 20 22 22 20 21 17 14 13 12 11 11 13 16 18 16 12 8 7 7 7 5 6 8 15 20 21 19 17 16 17
2 3 6 9 8 7 6 7 9 8 9 12 7 5 12 15 11 9 7 3 5 9 6 3 7 12 12 12 10 10 11 10 9 8 7 10 6 0 6 11 13 20 21 13 13 10 1 5 10 13 20 17 3 3 3 5 11 15 16 19 22 22 22 20 18 16 15 12 12 16 18 20 22 18 10 9 8 7 8 11 12 13 16 16 17 18 17 17
4 5 7 9 5 7 11 11 11 11 10 11 7 6 11 15 15 11 6 5 4 7 9 8 11 14 16 14 10 9 11 10 11 10 6 7 8 5 5 6 7 12 14 8 7 7 3 3 4 5 12 13 3 2 1 4 7 12 14 16 18 20 22 22 20 18 18 15 15 17 19 20 22 20 12 9 10 11 13 13 12 13 14 15 18 19 18 19
7 5 7 6 2 6 10 9 10 12 10 10 9 8 10 14 17 12 7 8 8 7 10 14 14 13 13 14 13 14 15 14 16 15 10 7 7 7 7 7 5 7 10 8 5 5 6 7 6 3 5 6 4 3 3 3 5 9 13 16 17 18 20 20 19 18 16 15 19 21 18 18 20 16 8 8 12 15 13 10 12 17 20 20 20 21 23 24
13 10 10 8 4 6 9 8 10 11 9 10 10 9 10 14 16 13 9 13 13 8 12 17 14 10 11 15 17 19 19 18 19 18 15 14 12 9 7 7 8 10 10 8 6 6 7 6 6 5 5 7 7 8 9 8 9 9 11 13 16 17 16 18 20 20 16 17 21 21 17 18 16 8 5 7 10 11 8 8 14 21 25 26 26 26 26 25
18 15 16 12 5 5 8 8 9 10 9 11 12 10 11 12 12 12 9 11 14 15 14 15 13 10 9 14 20 24 24 23 22 20 19 19 16 11 8 8 11 13 11 8 6 6 8 7 4 5 6 11 13 11 8 8 10 9 8 11 17 18 18 18 19 19 19 17 16 16 17 14 4 3 6 8 8 9 9 13 19 25 30 33 32 28 24 23
Wind_Direction
232 232 230 230 231 230 229 228 226 224 224 227 232 236 237 233 232 231 232 231 231 229 224 224 226 227 228 229 228 225 221 223 227 227 228 229 224 223 231 234 234 232 226 215 217 224 222 222 231 234 240 241 242 243 226 221 213 201 214 233 236 227 211 193 195 193 292 200 163 177 186 189 185 186 197 205 209 215 223 221 224 227 224 226 215 202 199 194
229 230 229 228 229 228 228 226 224 224 223 225 229 233 237 237 233 231 232 232 232 230 224 222 224 225 227 229 227 224 221 222 227 230 230 229 223 221 228 232 233 233 233 230 224 222 223 221 227 232 235 235 238 238 228 215 202 208 223 232 235 230 203 199 210 199 221 250 163 177 191 197 190 173 189 206 200 202 220 224 224 231 230 228 224 212 206 199
227 228 228 227 226 225 225 224 223 223 223 223 227 230 233 237 235 232 231 232 232 230 226 221 222 224 224 227 227 223 220 224 234 234 229 228 222 219 226 229 232 234 234 238 231 225 228 228 228 231 230 231 231 227 229 213 205 216 217 237 239 210 200 216 220 210 212 204 145 174 190 200 203 172 184 209 201 196 222 224 213 225 230 229 228 220 217 212
229 227 226 225 224 224 222 222 222 222 223 223 225 228 230 233 235 232 230 230 230 230 227 221 221 222 221 223 223 221 219 229 242 234 226 226 221 217 222 226 230 233 233 234 227 222 225 228 230 223 217 228 225 217 226 213 206 206 206 239 246 164 217 224 218 218 208 194 158 162 178 203 208 189 187 193 203 216 229 229 219 225 229 227 229 225 222 221
231 227 225 224 223 222 221 220 220 221 223 223 223 226 228 230 233 233 231 229 229 229 227 222 220 220 220 220 218 216 211 230 244 235 230 225 220 218 219 223 229 233 232 230 223 220 222 224 225 209 201 223 223 216 225 216 208 211 223 241 280 164 229 232 213 223 212 197 177 162 176 202 194 197 200 194 213 232 229 233 235 235 233 231 231 227 225 225
231 229 226 223 222 220 219 219 219 220 221 222 222 224 226 228 230 232 232 229 227 227 226 222 220 219 219 217 216 209 202 208 230 233 235 227 222 221 220 225 228 233 232 225 221 222 221 217 211 196 185 214 224 218 218 212 212 231 235 236 249 222 240 279 218 225 217 198 188 184 196 198 184 208 210 206 221 231 231 239 247 245 237 238 238 230 228 227
231 229 227 223 220 218 217 218 218 218 218 219 221 222 224 226 228 230 230 230 227 226 224 222 220 218 218 217 217 210 213 223 202 184 233 224 225 226 224 228 229 232 231 223 219 220 220 210 206 198 185 211 224 222 216 203 212 231 246 231 223 226 235 258 239 226 216 202 207 202 210 205 198 223 212 214 229 231 234 238 241 246 237 237 238 235 233 231
230 228 226 223 220 217 216 217 216 217 216 216 219 221 223 225 227 227 228 230 227 225 222 220 220 216 217 216 216 217 226 225 215 223 258 215 228 229 223 225 228 230 228 225 221 222 221 207 203 197 198 213 210 215 211 203 213 225 244 242 212 224 229 237 241 227 215 211 223 215 219 218 209 230 228 226 236 235 235 235 233 240 236 229 232 234 235 234
228 225 225 223 221 218 216 215 215 216 215 214 216 219 221 223 225 225 226 228 226 223 219 219 220 216 216 217 219 228 233 227 220 227 251 226 221 223 219 219 222 224 225 224 220 226 225 217 214 193 199 219 216 220 204 206 221 214 233 241 204 224 225 227 233 224 216 214 219 218 226 230 217 231 251 242 244 242 239 236 232 235 235 230 230 233 235 237
228 225 225 224 222 219 216 214 213 214 214 213 214 217 219 220 223 224 224 225 224 221 216 218 219 216 217 216 218 232 236 235 227 223 226 221 213 210 216 219 218 219 222 218 217 228 230 231 225 201 202 236 249 241 209 210 228 204 227 238 225 232 222 220 228 222 218 216 215 221 232 234 215 223 245 242 243 245 242 238 233 232 235 235 235 237 240 243
228 226 225 225 222 218 215 212 211 212 212 212 212 215 217 218 220 221 222 222 222 218 213 216 217 217 217 216 217 227 233 237 232 225 217 214 211 208 216 222 222 222 224 220 218 230 236 239 227 207 211 234 256 270 237 229 245 223 224 238 235 233 233 218 220 216 211 222 218 222 250 231 178 216 231 230 241 249 243 240 237 235 237 239 241 243 246 249
227 225 224 223 220 216 215 212 209 209 210 210 211 214 216 217 217 219 220 220 219 215 210 213 216 217 218 223 223 220 224 229 230 227 218 211 211 212 219 227 228 224 225 225 220 225 230 233 228 214 199 196 226 280 290 262 245 238 222 240 239 227 237 219 206 205 202 224 207 199 261 237 209 216 224 232 243 252 244 238 239 237 240 243 244 245 246 247
226 225 224 222 219 216 214 211 208 208 208 209 209 211 214 215 215 217 217 217 217 213 208 211 216 218 217 227 227 221 222 225 221 214 212 213 207 207 216 226 232 225 224 227 222 218 217 221 224 211 192 167 167 239 303 305 242 225 223 245 243 234 241 212 193 188 196 222 179 176 251 242 229 219 213 229 240 244 242 238 240 240 241 242 244 245 244 243
225 224 224 221 219 216 213 210 208 207 206 208 208 210 213 213 213 214 214 213 213 209 206 209 215 217 219 232 233 226 226 231 229 213 211 217 212 206 208 215 222 220 219 220 212 204 204 211 207 196 197 200 205 272 309 325 251 219 216 238 237 241 239 190 180 173 190 212 168 186 250 249 248 222 204 222 234 236 239 237 240 243 243 242 243 243 243 243
223 223 222 219 219 217 212 208 207 205 204 205 206 208 211 211 210 210 211 210 207 205 205 209 214 210 221 242 238 231 229 232 234 227 218 218 223 219 201 194 196 194 197 199 190 176 173 188 183 172 187 207 218 317 328 331 288 234 214 223 226 232 228 174 177 185 199 201 167 194 244 247 257 237 195 214 229 232 236 237 239 242 245 245 244 244 244 244
222 222 221 217 217 216 210 206 205 203 202 203 203 206 209 209 206 205 208 206 201 200 203 207 211 206 215 244 238 232 229 230 230 226 221 220 225 223 203 184 176 174 176 179 179 172 155 150 163 161 158 186 207 233 241 241 276 247 229 228 221 218 224 210 182 194 204 183 176 210 238 245 255 240 192 210 224 226 231 237 237 239 245 247 248 247 245 245
220 220 220 215 214 213 207 205 204 201 200 200 200 201 204 204 201 202 203 202 200 198 202 206 204 205 227 244 234 231 228 228 228 223 216 218 221 220 211 191 174 176 173 165 175 174 154 138 138 154 162 157 177 189 218 217 213 232 236 236 231 220 219 215 179 189 202 201 203 214 232 247 253 226 177 206 219 219 226 236 237 239 243 246 247 248 247 247
220 219 218 213 211 210 205 204 202 199 198 198 197 197 198 197 194 200 201 199 198 192 199 202 191 194 233 236 228 225 226 226 226 223 218 216 216 214 213 202 184 180 171 158 175 169 147 147 145 160 184 176 180 179 208 215 203 210 219 230 236 228 219 219 208 167 179 211 223 213 222 241 250 246 206 199 217 219 227 236 239 242 244 245 247 248 249 248
219 218 218 214 211 209 204 202 200 200 197 193 193 191 189 186 188 199 202 198 191 182 191 189 181 179 241 232 223 219 224 224 223 223 219 218 214 206 208 206 191 181 168 152 176 162 139 131 158 188 199 193 190 191 209 217 208 212 218 227 231 230 223 223 221 166 177 207 220 219 224 231 245 248 233 220 225 226 234 240 244 245 245 248 250 250 250 250
217 215 215 213 212 209 204 201 200 199 195 189 185 180 176 173 174 198 200 203 200 192 188 185 188 199 319 289 221 214 213 215 216 216 216 217 212 201 200 198 186 179 172 161 168 161 151 151 191 197 203 202 197 203 214 223 231 230 226 231 230 231 230 215 214 173 187 222 223 222 231 234 243 251 244 238 233 227 234 239 244 247 247 249 251 253 253 253
216 213 212 211 211 208 204 200 198 196 191 188 183 177 176 174 169 192 189 200 210 202 196 186 197 211 218 38 193 207 203 194 204 208 211 211 207 203 195 186 179 183 188 168 143 151 166 194 216 208 211 209 206 211 217 226 235 239 239 240 234 232 237 215 203 172 165 231 235 224 235 240 244 253 250 242 234 230 235 237 240 245 247 247 251 253 254 253
216 212 210 209 208 207 203 198 196 193 187 187 187 185 187 184 184 194 183 186 216 209 211 207 207 218 220 224 95 193 201 196 197 198 201 202 200 199 189 184 185 189 191 174 141 152 181 210 214 212 219 220 219 216 217 226 231 237 244 243 238 227 228 214 197 149 156 224 244 226 243 249 245 252 251 243 239 237 240 240 241 243 245 245 248 251 252 254
216 211 207 205 205 204 201 197 193 188 186 188 191 191 191 189 191 188 177 174 204 212 219 218 217 223 224 229 228 213 207 205 200 193 194 194 193 195 192 190 194 190 187 183 178 183 192 208 209 210 217 220 223 217 218 229 232 234 234 233 236 215 208 220 205 155 169 229 274 269 265 259 246 251 251 244 241 242 244 245 245 244 244 247 249 251 252 256
213 209 205 203 202 202 201 195 187 185 189 192 193 193 191 192 192 170 155 165 166 209 220 222 223 229 228 227 229 233 229 215 210 199 195 189 187 194 199 196 196 198 193 188 192 200 201 194 192 202 211 214 219 216 215 226 232 233 231 232 237 213 210 222 183 146 189 235 254 292 281 264 243 243 248 242 233 234 239 243 246 243 244 251 252 252 253 255
212 208 203 200 199 200 198 190 182 185 190 191 192 193 192 191 186 166 139 128 297 189 215 220 224 233 230 224 222 223 236 231 221 208 199 196 190 187 196 201 199 200 192 188 194 206 207 173 154 183 204 208 217 221 214 212 226 234 228 229 234 216 211 210 150 149 229 240 201 199 263 267 237 232 239 238 230 228 227 231 239 240 241 247 250 252 254 254
212 208 201 197 196 195 192 184 181 185 186 187 192 192 190 185 178 170 147 49 267 171 173 196 205 227 222 216 209 199 226 241 228 217 205 204 200 191 187 193 201 208 187 179 191 210 211 186 166 191 201 203 219 227 216 206 218 236 221 219 224 220 212 197 166 183 235 252 193 179 239 267 254 233 233 229 232 233 225 225 235 239 240 241 245 250 253 253
210 207 200 196 193 191 187 181 179 181 180 185 191 189 187 184 177 173 162 314 262 168 154 176 185 205 208 206 197 182 198 216 212 220 215 207 200 197 199 188 188 211 183 164 197 192 182 191 202 213 204 206 221 223 211 203 215 236 220 210 210 215 217 196 179 210 228 244 196 188 231 269 268 248 231 222 234 240 233 232 232 234 239 240 242 247 250 252
209 206 200 194 192 189 186 180 176 179 181 182 182 182 181 176 169 161 166 223 204 148 149 173 183 189 190 193 188 190 222 173 168 216 220 215 202 197 209 207 196 191 175 177 200 183 173 187 198 205 204 212 220 217 202 197 218 237 218 207 204 209 216 199 194 222 221 205 240 216 189 262 267 245 211 218 235 247 240 233 231 229 234 240 243 247 250 251
207 205 199 194 189 186 187 183 177 179 182 177 172 172 167 158 155 145 173 212 127 124 152 167 180 183 170 172 184 198 216 200 150 206 207 212 211 204 214 218 214 198 179 190 208 191 182 196 197 193 199 209 214 215 198 197 219 220 193 201 202 204 211 204 211 218 194 224 241 218 174 228 268 249 199 211 228 243 242 233 232 232 234 239 243 247 250 251
205 203 199 192 183 181 183 180 176 178 178 171 166 161 153 148 149 148 189 202 118 135 143 158 173 171 164 165 188 200 204 202 201 184 185 195 208 213 226 231 228 218 192 200 216 213 188 199 199 193 201 210 207 204 201 208 213 182 173 190 172 121 186 209 237 212 199 228 237 217 181 203 264 257 209 216 220 223 234 238 234 233 235 239 241 245 249 252
202 201 198 189 179 179 179 171 173 178 175 169 162 155 149 148 160 179 182 158 61 143 135 164 175 162 165 171 190 197 199 203 198 182 183 188 196 205 220 235 232 215 200 203 215 217 203 189 188 188 199 200 192 198 207 211 199 168 172 182 160 153 170 86 212 201 213 229 233 219 187 190 245 251 199 220 221 204 216 232 232 232 235 237 238 245 249 252
199 198 194 187 181 181 178 170 172 176 172 166 158 154 151 151 186 198 172 104 126 176 162 174 181 170 173 180 186 187 190 203 199 192 198 198 196 200 202 205 196 187 193 193 201 209 210 202 170 177 193 189 174 185 205 198 181 183 186 175 172 178 180 193 199 189 218 240 241 211 177 187 238 248 238 233 225 202 210 227 233 236 240 237 237 245 251 252
197 193 188 184 181 179 178 173 170 168 165 159 154 152 154 167 187 195 177 149 159 186 161 166 177 179 179 185 190 180 183 201 197 192 201 204 209 212 206 199 197 212 202 185 193 195 206 213 188 180 187 184 180 179 186 175 178 194 189 178 188 180 179 199 191 153 212 245 257 188 167 206 249 249 248 243 241 226 212 221 230 234 239 239 238 245 251 253
195 189 182 181 179 176 176 172 165 162 159 154 151 153 167 179 186 188 188 195 250 169 161 157 165 176 183 194 194 174 181 208 196 188 199 206 215 223 215 201 198 214 214 181 195 190 201 214 189 183 174 173 187 195 181 167 181 197 193 192 201 187 191 203 189 190 200 217 236 165 170 223 243 234 245 241 252 245 218 221 230 235 240 242 244 246 248 250
190 183 179 177 174 172 173 167 161 161 157 152 151 160 173 183 184 182 192 201 196 163 168 159 161 175 189 198 196 181 186 204 192 191 200 204 215 221 216 206 198 203 194 184 198 188 209 228 178 182 177 168 185 199 181 171 187 197 195 206 211 201 199 202 195 201 196 212 215 176 206 257 251 292 296 246 263 252 228 230 235 244 250 249 252 252 250 251
179 175 176 172 165 168 172 166 160 161 156 150 155 175 182 200 176 175 187 179 158 143 153 160 167 179 190 196 198 192 196 199 182 191 207 208 220 223 214 205 195 205 205 188 176 176 207 221 168 178 187 181 189 190 178 179 182 179 198 207 219 235 204 175 183 86 130 233 217 164 234 267 274 283 259 227 231 239 226 226 228 242 249 248 251 252 252 254
172 171 172 168 164 168 172 166 161 160 155 148 169 180 188 206 159 163 174 159 150 144 152 166 176 182 189 191 196 193 196 201 184 188 202 202 219 224 218 214 183 199 220 216 212 193 203 212 174 176 188 194 191 185 183 191 181 163 198 193 158 273 214 168 208 163 169 228 214 171 221 240 242 262 228 203 214 229 227 218 219 233 239 242 248 251 252 256
168 168 166 166 168 169 169 165 160 158 155 150 182 181 184 191 172 174 166 156 160 163 168 185 185 189 189 185 196 192 188 192 186 189 198 194 206 203 204 215 185 191 212 222 235 267 201 221 188 183 189 188 184 182 190 199 192 180 205 186 157 208 196 187 214 187 183 218 228 213 224 229 224 230 193 182 198 220 232 224 223 233 229 236 250 255 260 262
164 164 160 164 167 166 165 163 159 157 155 161 185 182 179 187 186 179 164 160 170 183 193 201 189 193 192 188 199 191 186 192 186 188 198 191 191 187 185 194 191 189 203 210 218 285 213 216 219 195 185 165 169 189 194 193 196 309 234 198 192 236 199 193 202 185 189 207 232 236 232 236 231 217 203 196 189 205 229 226 223 235 234 238 249 257 261 262
160 156 154 163 165 164 162 160 157 157 157 172 182 174 164 178 183 181 174 168 169 189 204 204 187 185 192 197 204 190 189 197 189 191 206 189 185 192 182 184 185 184 194 199 203 223 229 215 222 199 169 160 177 196 190 186 183 185 200 196 196 221 228 195 198 207 207 203 221 241 243 245 241 189 196 211 198 192 211 213 210 228 234 237 243 250 252 254
155 140 151 161 162 162 159 155 150 153 150 173 179 168 155 163 165 182 188 183 179 177 195 197 189 189 191 195 207 195 192 201 195 197 209 196 201 211 185 180 179 169 176 195 203 203 208 213 212 208 175 182 193 196 193 189 182 184 193 191 191 196 191 189 197 202 212 213 212 232 250 248 228 147 188 208 204 199 206 210 213 226 236 243 247 249 252 256
150 125 155 160 162 160 154 145 138 158 168 175 173 172 157 149 158 171 174 181 194 72 85 154 183 191 198 201 210 198 191 201 200 202 209 206 212 213 184 180 177 163 159 187 203 194 184 204 206 221 224 203 201 201 198 192 189 194 200 195 195 196 193 200 201 190 195 212 215 242 266 263 150 153 188 196 201 209 211 211 219 231 238 246 251 253 256 256
129 123 154 162 164 160 153 133 142 161 194 156 149 157 152 141 155 164 167 180 192 147 145 174 175 189 203 200 194 198 202 205 201 203 212 213 215 212 193 183 178 167 161 178 194 188 174 193 194 203 253 248 288 338 194 191 192 200 210 199 195 200 205 212 209 184 193 203 204 227 252 250 165 165 190 204 227 228 218 211 217 231 236 242 251 256 252 241
113 127 150 163 167 163 156 143 160 172 183 151 150 164 148 141 168 171 180 186 180 154 177 200 187 191 211 162 159 195 205 209 207 208 212 215 212 208 202 192 181 173 173 178 175 174 178 197 191 188 190 210 250 218 195 188 185 196 206 199 196 202 204 194 96 192 208 206 203 218 245 248 214 144 161 187 253 247 231 216 219 230 236 243 255 262 255 246
120 127 142 158 165 165 157 131 166 174 165 153 168 174 149 128 188 184 183 181 170 164 189 206 175 165 175 125 31 219 207 209 214 213 216 222 215 205 205 201 192 184 185 182 170 169 183 199 197 203 200 192 197 203 199 188 182 192 200 199 198 198 195 186 185 202 205 204 204 215 237 240 147 119 185 198 205 229 235 223 223 229 233 240 252 258 259 254
133 134 124 145 160 168 163 112 151 155 155 161 171 177 178 183 182 176 180 184 181 176 191 20 147 157 179 195 233 269 235 237 241 218 213 216 216 202 198 198 199 198 190 176 160 159 194 217 204 218 231 224 206 194 162 161 180 192 195 196 199 198 196 195 196 200 201 207 211 220 236 241 218 181 193 191 197 215 217 210 218 226 230 237 245 249 254 255
133 142 146 128 147 169 161 101 152 152 162 173 167 172 190 192 171 160 188 201 182 176 195 351 168 186 194 192 211 232 234 255 275 257 213 206 210 237 192 189 198 200 190 171 156 151 210 227 206 214 231 241 272 74 129 160 185 199 197 195 198 200 198 199 206 206 198 205 224 228 233 244 246 228 192 177 202 217 218 214 217 225 231 237 240 240 248 260
104 104 150 148 139 165 180 184 187 173 163 172 167 162 186 193 190 186 189 174 157 175 194 221 206 213 212 195 201 223 219 229 253 259 234 203 188 128 188 193 203 196 184 171 166 157 87 242 215 219 225 229 238 74 147 181 199 210 207 200 201 201 199 202 211 211 202 206 227 227 224 236 247 241 207 176 188 204 219 224 225 232 238 240 239 241 251 266
99 91 142 157 140 167 173 163 163 168 169 174 183 180 181 191 198 194 160 123 160 196 203 216 214 213 219 211 204 218 211 207 226 236 238 210 188 163 168 193 217 201 186 180 181 169 162 203 210 239 234 227 223 66 146 192 215 220 217 213 209 204 204 207 212 215 212 215 232 239 237 239 246 245 226 189 183 202 224 235 243 256 259 248 238 240 251 262
150 134 152 157 106 148 154 133 145 174 182 182 197 199 188 195 198 189 162 163 184 187 192 215 219 205 215 220 215 224 217 204 215 220 209 201 198 187 183 180 181 191 191 199 200 183 196 193 162 162 253 243 236 275 273 261 257 233 218 215 210 206 207 210 217 222 216 219 236 245 248 248 250 248 224 180 187 205 226 243 252 258 258 249 239 240 249 255
181 178 168 156 106 137 154 146 159 181 191 192 203 199 195 206 199 186 186 195 199 191 188 208 217 204 217 226 224 231 225 212 219 219 203 200 206 202 199 185 169 171 184 201 191 168 192 203 160 157 256 258 237 246 261 279 293 275 244 222 208 206 209 209 216 219 207 210 229 237 243 249 250 234 175 162 181 198 215 222 232 243 245 244 244 244 247 250
183 181 179 171 135 133 159 159 165 184 198 202 206 197 197 210 196 182 198 206 208 216 211 204 205 202 217 225 225 232 233 228 233 233 216 212 212 206 211 209 186 175 176 187 186 173 188 202 177 165 225 253 244 233 238 261 273 269 251 221 205 202 205 209 218 220 211 210 219 226 233 242 246 146 192 201 185 186 201 208 220 234 238 240 244 244 243 248